Weather History for Alpine, TX

Change the Weather History Date:

Friday, September 21, 2012

  Actual Average (KMRF) Record (KMRF)
Temperature  
Mean Temperature 76 °F -  
Max Temperature 89 °F 79 °F 89 °F (1998)
Min Temperature 62 °F 51 °F 46 °F (1996)
Cooling Degree Days 10    
Growing Degree Days 26 (Base 50)    
Moisture  
Dew Point 41 °F    
Average Humidity 32    
Maximum Humidity 54    
Minimum Humidity 13    
Precipitation  
Precipitation 0.00 in - - ()
Sea Level Pressure  
Sea Level Pressure 30.18 in    
Wind  
Wind Speed 8 mph (South)    
Max Wind Speed 13 mph    
Max Gust Speed 18 mph    
Visibility 10 miles    
Events      
Averages and records for this station are not official NWS values.
T = Trace of Precipitation, MM = Missing Value Source: NWS Daily Summary

Daily Weather History Graph

Daily Weather History Graph

Search for Another Location

Airport:

Trip Planner

Search our weather history database for the weather conditions in past years. The results will help you decide how hot, cold, wet, or windy it might be!

Date:

Astronomy

Sep. 21, 2012 Rise Set
Actual Time 7:42 AM CDT 7:51 PM CDT
Civil Twilight 7:18 AM CDT 8:15 PM CDT
Nautical Twilight 6:50 AM CDT 8:43 PM CDT
Astronomical Twilight 6:22 AM CDT 9:11 PM CDT
Moon 1:41 PM CDT (9/21) No Moon Set
Length of Visible Light 12h 57m
Length of Day
12h 09m
Waxing Crescent, 37% of the Moon is Illuminated
Sep 21
Waxing Crescent
Sep 22
First Quarter
Sep 29
Full
Oct 8
Last Quarter
Oct 15
New

Hourly Weather History & Observations

Time (CDT) Temp. Dew Point Humidity Pressure Visibility Wind Dir Wind Speed Gust Speed Precip Events Conditions
12:15 AM 69.6 °F 45.3 °F 42% 30.20 in 10.0 mi SSE 10.4 mph - N/A   Clear
12:35 AM 70.0 °F 45.0 °F 41% 30.20 in 10.0 mi SSE 9.2 mph - N/A   Clear
12:55 AM 69.1 °F 45.0 °F 42% 30.20 in 10.0 mi South 8.1 mph - N/A   Clear
1:15 AM 68.9 °F 44.8 °F 42% 30.19 in 10.0 mi South 9.2 mph - N/A   Clear
1:35 AM 69.1 °F 44.8 °F 42% 30.19 in 10.0 mi South 9.2 mph - N/A   Clear
1:55 AM 69.6 °F 44.4 °F 40% 30.19 in 10.0 mi SSW 11.5 mph - N/A   Clear
2:15 AM 70.0 °F 44.1 °F 39% 30.19 in 10.0 mi South 10.4 mph - N/A   Clear
2:35 AM 67.6 °F 43.5 °F 42% 30.19 in 10.0 mi SW 5.8 mph - N/A   Clear
2:55 AM 64.9 °F 43.0 °F 45% 30.19 in 10.0 mi SSW 4.6 mph - N/A   Clear
3:15 AM 65.1 °F 43.0 °F 45% 30.19 in 10.0 mi SSW 3.5 mph - N/A   Clear
3:35 AM 64.4 °F 43.3 °F 46% 30.19 in 10.0 mi SSW 5.8 mph - N/A   Clear
3:55 AM 65.1 °F 42.8 °F 44% 30.19 in 10.0 mi SSW 8.1 mph - N/A   Clear
4:15 AM 64.6 °F 43.2 °F 46% 30.17 in 10.0 mi SSW 8.1 mph - N/A   Clear
4:35 AM 64.2 °F 44.1 °F 48% 30.17 in 10.0 mi SSW 9.2 mph - N/A   Clear
4:55 AM 64.0 °F 44.2 °F 49% 30.17 in 10.0 mi SSW 9.2 mph - N/A   Clear
5:15 AM 64.9 °F 44.6 °F 48% 30.17 in 10.0 mi SSW 11.5 mph - N/A   Clear
5:35 AM 65.1 °F 44.8 °F 48% 30.17 in 10.0 mi SSW 11.5 mph - N/A   Clear
5:55 AM 64.9 °F 45.0 °F 48% 30.17 in 10.0 mi SSW 10.4 mph - N/A   Clear
6:15 AM 64.6 °F 45.1 °F 49% 30.18 in 10.0 mi SSW 4.6 mph - N/A   Clear
6:35 AM 63.1 °F 45.3 °F 52% 30.18 in 10.0 mi SSW 3.5 mph - N/A   Clear
6:55 AM 62.8 °F 45.5 °F 53% 30.19 in 10.0 mi SSW 5.8 mph - N/A   Clear
7:15 AM 62.2 °F 45.3 °F 54% 30.19 in 10.0 mi SSW 8.1 mph - N/A   Clear
7:35 AM 63.3 °F 45.3 °F 52% 30.19 in 10.0 mi SSW 10.4 mph - N/A   Clear
7:55 AM 63.9 °F 45.1 °F 51% 30.19 in 10.0 mi SSW 8.1 mph - N/A   Clear
8:15 AM 64.2 °F 45.3 °F 50% 30.20 in 10.0 mi South 5.8 mph - N/A   Clear
8:35 AM 65.1 °F 45.7 °F 49% 30.20 in 10.0 mi South 5.8 mph - N/A   Clear
8:55 AM 67.5 °F 46.6 °F 47% 30.21 in 10.0 mi Calm Calm - N/A   Clear
9:15 AM 70.5 °F 46.6 °F 42% 30.21 in 10.0 mi Calm Calm - N/A   Clear
9:35 AM 73.8 °F 45.9 °F 37% 30.20 in 10.0 mi SSW 8.1 mph - N/A   Clear
9:55 AM 75.4 °F 45.5 °F 34% 30.21 in 10.0 mi South 8.1 mph - N/A   Clear
10:15 AM 76.8 °F 45.1 °F 32% 30.21 in 10.0 mi SSW 11.5 mph - N/A   Clear
10:35 AM 78.4 °F 44.4 °F 30% 30.21 in 10.0 mi SSW 9.2 mph - N/A   Clear
10:55 AM 79.9 °F 43.7 °F 28% 30.21 in 10.0 mi SSW 8.1 mph - N/A   Clear
11:15 AM 80.6 °F 43.3 °F 27% 30.21 in 10.0 mi SW 8.1 mph - N/A   Clear
11:35 AM 81.9 °F 42.8 °F 25% 30.21 in 10.0 mi SW 8.1 mph - N/A   Clear
11:55 AM 82.6 °F 41.5 °F 23% 30.21 in 10.0 mi West 6.9 mph - N/A   Clear
12:15 PM 84.0 °F 40.3 °F 21% 30.20 in 10.0 mi WSW 6.9 mph - N/A   Clear
12:35 PM 84.0 °F 39.4 °F 21% 30.20 in 10.0 mi West 3.5 mph - N/A   Clear
12:55 PM 84.9 °F 37.8 °F 19% 30.19 in 10.0 mi NNW 3.5 mph - N/A   Clear
1:15 PM 85.8 °F 35.1 °F 16% 30.19 in 10.0 mi North 8.1 mph - N/A   Clear
1:35 PM 86.9 °F 36.5 °F 17% 30.18 in 10.0 mi ENE 5.8 mph - N/A   Clear
1:55 PM 86.9 °F 36.3 °F 17% 30.17 in 10.0 mi Calm Calm - N/A   Clear
2:15 PM 87.8 °F 35.2 °F 15% 30.16 in 10.0 mi NW 8.1 mph - N/A   Clear
2:35 PM 87.8 °F 35.1 °F 15% 30.15 in 10.0 mi NNW 6.9 mph - N/A   Clear
2:55 PM 88.7 °F 34.7 °F 15% 30.15 in 10.0 mi Calm Calm - N/A   Clear
3:15 PM 89.1 °F 33.1 °F 14% 30.14 in 10.0 mi NW 5.8 mph - N/A   Clear
3:35 PM 89.8 °F 32.4 °F 13% 30.14 in 10.0 mi NNE 5.8 mph - N/A   Clear
3:55 PM 88.5 °F 32.0 °F 13% 30.13 in 10.0 mi North 6.9 mph - N/A   Clear
4:15 PM 86.7 °F 32.5 °F 14% 30.13 in 10.0 mi North 5.8 mph 10.4 mph N/A   Clear
4:35 PM 87.1 °F 32.4 °F 14% 30.13 in 10.0 mi NNE 6.9 mph - N/A   Clear
4:55 PM 88.7 °F 32.0 °F 13% 30.12 in 10.0 mi North 5.8 mph - N/A   Clear
5:15 PM 88.2 °F 31.8 °F 13% 30.12 in 10.0 mi NNE 8.1 mph - N/A   Clear
5:35 PM 88.9 °F 32.5 °F 13% 30.12 in 10.0 mi NNW 9.2 mph 16.1 mph N/A   Clear
5:55 PM 88.5 °F 32.7 °F 14% 30.12 in 10.0 mi North 6.9 mph 18.4 mph N/A   Clear
6:15 PM 88.2 °F 32.5 °F 14% 30.12 in 10.0 mi North 9.2 mph 16.1 mph N/A   Clear
6:35 PM 87.4 °F 33.1 °F 14% 30.13 in 10.0 mi North 9.2 mph - N/A   Clear
6:55 PM 86.5 °F 34.2 °F 15% 30.13 in 10.0 mi North 12.7 mph 16.1 mph N/A   Scattered Clouds
7:15 PM 85.1 °F 34.5 °F 16% 30.14 in 10.0 mi NNE 6.9 mph - N/A   Scattered Clouds
7:35 PM 82.8 °F 35.2 °F 18% 30.14 in 10.0 mi North 8.1 mph - N/A   Clear
7:55 PM 80.4 °F 38.1 °F 22% 30.15 in 10.0 mi ENE 8.1 mph - N/A   Clear
8:15 PM 79.0 °F 41.5 °F 26% 30.15 in 10.0 mi ESE 6.9 mph - N/A   Clear
8:35 PM 77.9 °F 41.5 °F 27% 30.16 in 10.0 mi ESE 5.8 mph - N/A   Clear
8:55 PM 76.1 °F 41.4 °F 29% 30.17 in 10.0 mi ESE 6.9 mph - N/A   Clear
9:15 PM 75.6 °F 41.2 °F 29% 30.17 in 10.0 mi ESE 10.4 mph - N/A   Clear
9:35 PM 75.7 °F 41.0 °F 29% 30.17 in 10.0 mi SE 10.4 mph - N/A   Clear
9:55 PM 74.8 °F 41.5 °F 30% 30.18 in 10.0 mi SE 11.5 mph 17.3 mph N/A   Clear
10:15 PM 73.8 °F 42.8 °F 33% 30.18 in 10.0 mi SE 9.2 mph - N/A   Clear
10:35 PM 72.9 °F 43.7 °F 35% 30.19 in 10.0 mi SE 9.2 mph - N/A   Clear
10:55 PM 72.0 °F 43.9 °F 36% 30.19 in 10.0 mi SE 9.2 mph - N/A   Clear
11:15 PM 71.6 °F 44.1 °F 37% 30.19 in 10.0 mi SE 10.4 mph - N/A   Clear
11:35 PM 71.2 °F 43.9 °F 37% 30.19 in 10.0 mi SE 10.4 mph - N/A   Clear
11:55 PM 70.9 °F 43.7 °F 38% 30.20 in 10.0 mi ESE 6.9 mph - N/A   Clear